sat.trackr.live / text

‹ back to catalog

STARLINK-6089

NORAD 56096 · 2023-046D

PAYLOAD ACTIVE UNKNOWN

§ Identity

Operator
Country
US
Launch date
2023-03-29
Launch site
AFETR
Launch vehicle
Mass (kg)
RCS (m²)

Purposes: comms

External: N2YO · Heavens-Above · Gunter

§ Orbital elements

Epoch: 2026-05-25T04:41:22.545312Z

Period
94.27 min
Inclination
43.0037°
Eccentricity
0.0001167
Mean motion
15.27575418 rev/d
Perigee alt
482.3 km
Apogee alt
483.9 km
Semi-major
6,861.2 km
B*
1.4165e-5
RAAN
89.3593°
Arg perigee
265.4788°
Mean anomaly
94.5930°
Rev number
17,373

§ Raw data

STARLINK-60891 56096U 23046D   26145.19539983  .00000128  00000+0  14165-4 0  99972 56096  43.0037  89.3593 0001167 265.4788  94.5930 15.27575418173733

JSON: /api/v1/satellites/56096 · /tle

For live sub-satellite position, see the globe view (requires WebGL).

§ Visibility from observer

Set your observer location to see the next 7 days of passes ≥ 10°. The values pass through the URL so the page stays shareable.

No JS? Fill the form by hand. The geolocation button needs JavaScript.